{"data":{"norad_id":62934,"epoch":"2026-09-22T22:14:01.722912Z","epoch_age_seconds":105906,"freshness":"FRESH","line1":"1 62934U 25028G   26265.92640883  .00000727  00000+0  11926-3 0  9999","line2":"2 62934  97.9574 316.9790 0003483 175.5994 184.5245 14.73582513 87058","mean_motion":14.73582513,"eccentricity":0.0003483,"inclination_deg":97.9574,"raan_deg":316.979,"arg_perigee_deg":175.5994,"mean_anomaly_deg":184.5245,"bstar":0.00011926,"rev_number":8705,"period_min":97.72102934829,"perigee_km":647.20672319693,"apogee_km":652.1022827579,"semimajor_km":7027.7915029774,"source":"CELESTRAK","updated_at":"2026-09-23T09:00:21.727732Z"}}